Time,TemperatureF,DewpointF,PressureIn,WindDirection,WindDirectionDegrees,WindSpeedMPH,WindSpeedGustMPH,Humidity,HourlyPrecipIn,Conditions,Clouds,dailyrainin,SoftwareType,DateUTC
2013-06-11 00:01:00,61.5,59.2,29.96,NNE,24,0.0,0.0,92,0.00,CLR,,0.00,WeatherDisplay:10.37,2013-06-11 04:01:00,
2013-06-11 00:03:00,61.5,59.2,29.96,NNE,24,0.0,0.0,92,0.00,CLR,,0.00,WeatherDisplay:10.37,2013-06-11 04:03:00,
2013-06-11 00:08:00,61.3,59.0,29.96,NNE,24,0.0,0.0,92,0.00,CLR,,0.00,WeatherDisplay:10.37,2013-06-11 04:08:00,
2013-06-11 00:13:00,61.3,59.0,29.96,NNE,24,0.0,0.0,92,0.00,CLR,,0.00,WeatherDisplay:10.37,2013-06-11 04:13:00,
2013-06-11 00:18:00,61.5,59.2,29.95,NNE,24,0.0,0.0,92,0.00,CLR,,0.00,WeatherDisplay:10.37,2013-06-11 04:18:00,
2013-06-11 00:23:00,61.5,59.2,29.95,NNE,24,0.0,0.0,92,0.00,CLR,,0.00,WeatherDisplay:10.37,2013-06-11 04:23:00,
2013-06-11 00:28:00,61.5,59.2,29.95,NNE,24,0.0,0.0,92,0.00,CLR,,0.00,WeatherDisplay:10.37,2013-06-11 04:28:00,
2013-06-11 00:33:00,61.5,59.2,29.95,NNE,24,0.0,0.0,92,0.00,CLR,,0.00,WeatherDisplay:10.37,2013-06-11 04:33:00,
2013-06-11 00:38:00,61.5,59.2,29.95,NNE,24,0.0,0.0,92,0.00,CLR,,0.00,WeatherDisplay:10.37,2013-06-11 04:38:00,
2013-06-11 00:43:00,61.7,59.4,29.95,NNE,24,0.0,0.0,92,0.00,CLR,,0.00,WeatherDisplay:10.37,2013-06-11 04:43:00,
2013-06-11 00:48:00,61.7,59.4,29.95,NNE,24,0.0,0.0,92,0.00,CLR,,0.00,WeatherDisplay:10.37,2013-06-11 04:48:00,
2013-06-11 00:53:00,61.5,59.2,29.95,NNE,24,0.0,0.0,92,0.00,CLR,,0.00,WeatherDisplay:10.37,2013-06-11 04:53:00,
2013-06-11 00:58:00,61.5,59.5,29.95,NNE,24,0.0,0.0,93,0.00,CLR,,0.00,WeatherDisplay:10.37,2013-06-11 04:58:00,
2013-06-11 01:03:00,61.5,59.5,29.95,NNE,24,0.0,0.0,93,0.00,CLR,,0.00,WeatherDisplay:10.37,2013-06-11 05:03:00,
2013-06-11 01:08:00,61.5,59.5,29.95,NNE,24,0.0,0.0,93,0.00,CLR,,0.00,WeatherDisplay:10.37,2013-06-11 05:08:00,
2013-06-11 01:13:00,61.3,59.3,29.95,NNE,24,0.0,0.0,93,0.00,CLR,,0.00,WeatherDisplay:10.37,2013-06-11 05:13:00,
2013-06-11 01:18:00,61.3,59.3,29.95,NNE,24,0.0,0.0,93,0.00,CLR,,0.00,WeatherDisplay:10.37,2013-06-11 05:18:00,
2013-06-11 01:23:00,61.3,59.3,29.95,NNE,24,0.0,0.0,93,0.00,CLR,,0.00,WeatherDisplay:10.37,2013-06-11 05:23:00,
2013-06-11 01:28:00,61.2,59.1,29.95,NNE,24,0.0,0.0,93,0.00,CLR,,0.00,WeatherDisplay:10.37,2013-06-11 05:28:00,
2013-06-11 01:33:00,61.0,58.9,29.95,NNE,24,0.0,0.0,93,0.00,CLR,,0.00,WeatherDisplay:10.37,2013-06-11 05:33:00,
2013-06-11 01:38:00,61.0,58.9,29.95,NNE,24,0.0,0.0,93,0.00,CLR,,0.00,WeatherDisplay:10.37,2013-06-11 05:38:00,
2013-06-11 01:43:00,60.6,58.6,29.95,NNE,24,0.0,0.0,93,0.00,CLR,,0.00,WeatherDisplay:10.37,2013-06-11 05:43:00,
2013-06-11 01:48:00,60.6,58.6,29.95,NNE,24,0.0,0.0,93,0.00,CLR,,0.00,WeatherDisplay:10.37,2013-06-11 05:48:00,
2013-06-11 01:53:00,60.6,58.6,29.95,NNE,24,0.0,0.0,93,0.00,CLR,,0.00,WeatherDisplay:10.37,2013-06-11 05:53:00,
2013-06-11 01:58:00,60.6,58.6,29.95,NNE,24,0.0,0.0,93,0.00,CLR,,0.00,WeatherDisplay:10.37,2013-06-11 05:58:00,
2013-06-11 02:03:00,60.6,58.6,29.95,NNE,24,0.0,0.0,93,0.00,CLR,,0.00,WeatherDisplay:10.37,2013-06-11 06:03:00,
2013-06-11 02:08:00,60.4,58.4,29.95,NNE,24,0.0,0.0,93,0.00,CLR,,0.00,WeatherDisplay:10.37,2013-06-11 06:08:00,
2013-06-11 02:13:00,60.6,58.6,29.95,NNE,24,0.0,0.0,93,0.00,CLR,,0.00,WeatherDisplay:10.37,2013-06-11 06:13:00,
2013-06-11 02:18:00,60.6,58.6,29.95,NNE,24,0.0,0.0,93,0.00,CLR,,0.00,WeatherDisplay:10.37,2013-06-11 06:18:00,
2013-06-11 02:23:00,60.6,58.6,29.95,NNE,24,0.0,0.0,93,0.00,CLR,,0.00,WeatherDisplay:10.37,2013-06-11 06:23:00,
2013-06-11 02:28:00,60.6,58.6,29.94,NNE,24,0.0,0.0,93,0.00,CLR,,0.00,WeatherDisplay:10.37,2013-06-11 06:28:00,
2013-06-11 02:33:00,60.6,58.6,29.94,NNE,24,0.0,0.0,93,0.00,CLR,,0.00,WeatherDisplay:10.37,2013-06-11 06:33:00,
2013-06-11 02:38:00,60.6,58.6,29.94,NNE,24,0.0,0.0,93,0.00,CLR,,0.00,WeatherDisplay:10.37,2013-06-11 06:38:00,
2013-06-11 02:43:00,60.6,58.6,29.95,NNE,24,0.0,0.0,93,0.00,CLR,,0.00,WeatherDisplay:10.37,2013-06-11 06:43:00,
2013-06-11 02:48:00,60.6,58.6,29.95,NNE,24,0.0,0.0,93,0.00,CLR,,0.00,WeatherDisplay:10.37,2013-06-11 06:48:00,
2013-06-11 02:53:00,60.8,58.8,29.95,NNE,24,0.0,0.0,93,0.00,CLR,,0.00,WeatherDisplay:10.37,2013-06-11 06:53:00,
2013-06-11 02:58:00,61.0,58.9,29.95,NNE,24,0.0,0.0,93,0.00,CLR,,0.00,WeatherDisplay:10.37,2013-06-11 06:58:00,
2013-06-11 03:03:00,61.0,58.9,29.95,NNE,24,0.0,0.0,93,0.00,CLR,,0.00,WeatherDisplay:10.37,2013-06-11 07:03:00,
2013-06-11 03:08:00,61.0,58.9,29.95,NNE,24,0.0,0.0,93,0.00,CLR,,0.00,WeatherDisplay:10.37,2013-06-11 07:08:00,
2013-06-11 03:13:00,61.0,58.9,29.94,NNE,24,0.0,0.0,93,0.00,CLR,,0.00,WeatherDisplay:10.37,2013-06-11 07:13:00,
2013-06-11 03:18:00,61.0,58.9,29.94,NNE,24,0.0,0.0,93,0.00,CLR,,0.00,WeatherDisplay:10.37,2013-06-11 07:18:00,
2013-06-11 03:23:00,60.8,58.8,29.94,NNE,24,0.0,0.0,93,0.00,CLR,,0.00,WeatherDisplay:10.37,2013-06-11 07:23:00,
2013-06-11 03:28:00,60.6,58.6,29.94,NNE,24,0.0,0.0,93,0.00,CLR,,0.00,WeatherDisplay:10.37,2013-06-11 07:28:00,
2013-06-11 03:33:00,60.6,58.6,29.94,NNE,24,0.0,0.0,93,0.00,CLR,,0.00,WeatherDisplay:10.37,2013-06-11 07:33:00,
2013-06-11 03:38:00,60.6,58.6,29.94,NNE,24,0.0,0.0,93,0.00,CLR,,0.00,WeatherDisplay:10.37,2013-06-11 07:38:00,
2013-06-11 03:43:00,60.6,58.6,29.94,NNE,24,0.0,0.0,93,0.00,CLR,,0.00,WeatherDisplay:10.37,2013-06-11 07:43:00,
2013-06-11 03:48:00,60.6,58.6,29.95,NNE,24,0.0,0.0,93,0.00,CLR,,0.00,WeatherDisplay:10.37,2013-06-11 07:48:00,
2013-06-11 03:53:00,60.6,58.6,29.95,NNE,24,0.0,0.0,93,0.00,CLR,,0.00,WeatherDisplay:10.37,2013-06-11 07:53:00,
2013-06-11 03:58:00,60.6,58.6,29.94,NNE,24,0.0,0.0,93,0.00,CLR,,0.00,WeatherDisplay:10.37,2013-06-11 07:58:00,
2013-06-11 04:03:00,60.6,58.6,29.94,NNE,24,0.0,0.0,93,0.00,CLR,,0.00,WeatherDisplay:10.37,2013-06-11 08:03:00,
2013-06-11 04:08:00,60.6,58.6,29.94,NNE,24,0.0,0.0,93,0.00,CLR,,0.00,WeatherDisplay:10.37,2013-06-11 08:08:00,
2013-06-11 04:13:00,60.6,58.6,29.95,NNE,24,0.0,0.0,93,0.00,CLR,,0.00,WeatherDisplay:10.37,2013-06-11 08:13:00,
2013-06-11 04:18:00,60.6,58.6,29.95,NNE,24,0.0,0.0,93,0.00,CLR,,0.00,WeatherDisplay:10.37,2013-06-11 08:18:00,
2013-06-11 04:23:00,60.6,58.6,29.95,NNE,24,0.0,0.0,93,0.00,CLR,,0.00,WeatherDisplay:10.37,2013-06-11 08:23:00,
2013-06-11 04:28:00,60.6,58.6,29.95,NNE,24,0.0,0.0,93,0.00,CLR,,0.00,WeatherDisplay:10.37,2013-06-11 08:28:00,
2013-06-11 04:33:00,60.6,58.6,29.95,NNE,24,0.0,0.0,93,0.00,CLR,,0.00,WeatherDisplay:10.37,2013-06-11 08:33:00,
2013-06-11 04:38:00,60.6,58.6,29.95,NNE,24,0.0,0.0,93,0.00,CLR,,0.00,WeatherDisplay:10.37,2013-06-11 08:38:00,
2013-06-11 04:43:00,60.6,58.6,29.96,NNE,24,0.0,0.0,93,0.00,CLR,,0.00,WeatherDisplay:10.37,2013-06-11 08:43:00,
2013-06-11 04:48:00,60.6,58.6,29.96,NNE,24,0.0,0.0,93,0.00,CLR,,0.00,WeatherDisplay:10.37,2013-06-11 08:48:00,
2013-06-11 04:53:00,60.6,58.6,29.96,NNE,24,0.0,0.0,93,0.00,CLR,,0.00,WeatherDisplay:10.37,2013-06-11 08:53:00,
2013-06-11 04:58:00,60.6,58.6,29.96,NNE,24,0.0,0.0,93,0.00,CLR,,0.00,WeatherDisplay:10.37,2013-06-11 08:58:00,
2013-06-11 05:03:00,60.6,58.6,29.96,NNE,24,0.0,0.0,93,0.00,CLR,,0.00,WeatherDisplay:10.37,2013-06-11 09:03:00,
2013-06-11 05:08:00,60.6,58.6,29.96,NNE,24,0.0,0.0,93,0.00,CLR,,0.00,WeatherDisplay:10.37,2013-06-11 09:08:00,
2013-06-11 05:13:00,60.6,58.6,29.96,NNE,24,0.0,0.0,93,0.00,CLR,,0.00,WeatherDisplay:10.37,2013-06-11 09:13:00,
2013-06-11 05:18:00,60.6,58.6,29.97,NNE,24,0.0,0.0,93,0.00,CLR,,0.00,WeatherDisplay:10.37,2013-06-11 09:18:00,
2013-06-11 05:23:00,60.6,58.6,29.97,NNE,24,0.0,0.0,93,0.00,CLR,,0.00,WeatherDisplay:10.37,2013-06-11 09:23:00,
2013-06-11 05:28:00,60.6,58.6,29.97,NNE,24,0.0,0.0,93,0.00,CLR,,0.00,WeatherDisplay:10.37,2013-06-11 09:28:00,
2013-06-11 05:33:00,60.6,58.6,29.97,NNE,24,0.0,0.0,93,0.00,CLR,,0.00,WeatherDisplay:10.37,2013-06-11 09:33:00,
2013-06-11 05:38:00,60.6,58.6,29.97,NNE,24,0.0,0.0,93,0.00,CLR,,0.00,WeatherDisplay:10.37,2013-06-11 09:38:00,
2013-06-11 05:43:00,60.6,58.6,29.97,NNE,24,0.0,0.0,93,0.00,CLR,,0.00,WeatherDisplay:10.37,2013-06-11 09:43:00,
2013-06-11 05:48:00,60.4,58.4,29.98,NNE,24,0.0,0.0,93,0.00,CLR,,0.00,WeatherDisplay:10.37,2013-06-11 09:48:00,
2013-06-11 05:53:00,60.4,58.4,29.98,NNE,24,0.0,0.0,93,0.00,CLR,,0.00,WeatherDisplay:10.37,2013-06-11 09:53:00,
2013-06-11 05:58:00,60.4,58.4,29.97,NNE,24,0.0,0.0,93,0.00,CLR,,0.00,WeatherDisplay:10.37,2013-06-11 09:58:00,
2013-06-11 06:03:00,60.4,58.4,29.97,NNE,24,0.0,0.0,93,0.00,CLR,,0.00,WeatherDisplay:10.37,2013-06-11 10:03:00,
2013-06-11 06:08:00,60.4,58.4,29.98,NNE,24,0.0,0.0,93,0.00,CLR,,0.00,WeatherDisplay:10.37,2013-06-11 10:08:00,
2013-06-11 06:13:00,60.4,58.4,29.98,NNE,24,0.0,0.0,93,0.00,CLR,,0.00,WeatherDisplay:10.37,2013-06-11 10:13:00,
2013-06-11 06:18:00,60.4,58.4,29.98,NNE,24,0.0,0.0,93,0.00,CLR,,0.00,WeatherDisplay:10.37,2013-06-11 10:18:00,
2013-06-11 06:23:00,60.4,58.4,29.98,NNE,24,0.0,0.0,93,0.00,CLR,,0.00,WeatherDisplay:10.37,2013-06-11 10:23:00,
2013-06-11 06:28:00,60.4,58.4,29.98,NNE,24,0.0,0.0,93,0.00,CLR,,0.00,WeatherDisplay:10.37,2013-06-11 10:28:00,
2013-06-11 06:33:00,60.4,58.4,29.98,NNE,24,0.0,0.0,93,0.00,CLR,,0.00,WeatherDisplay:10.37,2013-06-11 10:33:00,
2013-06-11 06:38:00,60.4,58.4,29.98,NNE,24,0.0,0.0,93,0.00,CLR,,0.00,WeatherDisplay:10.37,2013-06-11 10:38:00,
2013-06-11 06:43:00,60.4,58.4,29.98,NNE,24,0.0,0.0,93,0.00,CLR,,0.00,WeatherDisplay:10.37,2013-06-11 10:43:00,
2013-06-11 06:48:00,60.4,58.4,29.98,NNE,24,0.0,0.0,93,0.00,CLR,,0.00,WeatherDisplay:10.37,2013-06-11 10:48:00,
2013-06-11 06:53:00,60.4,58.7,29.99,NNE,24,0.0,0.0,94,0.00,CLR,,0.00,WeatherDisplay:10.37,2013-06-11 10:53:00,
2013-06-11 06:58:00,60.4,58.4,29.99,NNE,24,0.0,0.0,93,0.00,CLR,,0.00,WeatherDisplay:10.37,2013-06-11 10:58:00,
2013-06-11 07:03:00,60.4,58.7,29.99,NNE,24,0.0,0.0,94,0.00,CLR,,0.00,WeatherDisplay:10.37,2013-06-11 11:03:00,
2013-06-11 07:08:00,60.4,58.7,29.99,NNE,24,0.0,0.0,94,0.00,CLR,,0.00,WeatherDisplay:10.37,2013-06-11 11:08:00,
2013-06-11 07:13:00,60.6,58.9,30.00,NNE,24,0.0,0.0,94,0.00,CLR,,0.00,WeatherDisplay:10.37,2013-06-11 11:13:00,
2013-06-11 07:18:00,60.6,58.9,30.00,NNE,24,0.0,0.0,94,0.00,CLR,,0.00,WeatherDisplay:10.37,2013-06-11 11:18:00,
2013-06-11 07:23:00,60.6,58.9,30.00,NNE,24,0.0,0.0,94,0.00,CLR,,0.00,WeatherDisplay:10.37,2013-06-11 11:23:00,
2013-06-11 07:28:00,60.6,58.9,30.00,NNE,24,0.0,0.0,94,0.00,CLR,,0.00,WeatherDisplay:10.37,2013-06-11 11:28:00,
2013-06-11 07:33:00,60.6,58.9,30.00,NNE,24,0.0,0.0,94,0.00,CLR,,0.00,WeatherDisplay:10.37,2013-06-11 11:33:00,
2013-06-11 07:38:00,60.6,58.9,30.01,NNE,24,0.0,0.0,94,0.00,CLR,,0.00,WeatherDisplay:10.37,2013-06-11 11:38:00,
2013-06-11 07:43:00,60.6,58.9,30.01,NNE,24,0.0,0.0,94,0.00,CLR,,0.00,WeatherDisplay:10.37,2013-06-11 11:43:00,
2013-06-11 07:48:00,61.0,59.2,30.01,NNE,24,0.0,0.0,94,0.00,CLR,,0.00,WeatherDisplay:10.37,2013-06-11 11:48:00,
2013-06-11 07:53:00,61.0,59.2,30.01,NNE,24,0.0,0.0,94,0.00,CLR,,0.00,WeatherDisplay:10.37,2013-06-11 11:53:00,
2013-06-11 07:58:00,61.0,59.2,30.01,NNE,24,0.0,0.0,94,0.00,CLR,,0.00,WeatherDisplay:10.37,2013-06-11 11:58:00,
2013-06-11 08:03:00,61.2,59.4,30.01,NNE,24,0.0,0.0,94,0.00,CLR,,0.00,WeatherDisplay:10.37,2013-06-11 12:03:00,
2013-06-11 08:08:00,61.3,59.6,30.01,NNE,24,0.0,0.0,94,0.00,CLR,,0.00,WeatherDisplay:10.37,2013-06-11 12:08:00,
2013-06-11 08:13:00,61.3,59.6,30.01,NNE,24,0.0,0.0,94,0.00,CLR,,0.00,WeatherDisplay:10.37,2013-06-11 12:13:00,
2013-06-11 08:18:00,61.5,59.8,30.01,NNE,24,0.0,0.0,94,0.00,CLR,,0.00,WeatherDisplay:10.37,2013-06-11 12:18:00,
2013-06-11 08:23:00,61.5,59.8,30.01,NNE,24,0.0,0.0,94,0.00,CLR,,0.00,WeatherDisplay:10.37,2013-06-11 12:23:00,
2013-06-11 08:28:00,61.5,59.8,30.01,NNE,24,0.0,0.0,94,0.00,CLR,,0.00,WeatherDisplay:10.37,2013-06-11 12:28:00,
2013-06-11 08:33:00,61.5,59.8,30.01,NNE,24,0.0,0.0,94,0.00,CLR,,0.00,WeatherDisplay:10.37,2013-06-11 12:33:00,
2013-06-11 08:38:00,61.5,59.8,30.01,NNE,24,0.0,0.0,94,0.00,CLR,,0.00,WeatherDisplay:10.37,2013-06-11 12:38:00,
2013-06-11 08:43:00,61.5,59.8,30.02,NNE,24,0.0,0.0,94,0.00,CLR,,0.00,WeatherDisplay:10.37,2013-06-11 12:43:00,
2013-06-11 08:48:00,61.7,59.7,30.02,NNE,24,0.0,0.0,93,0.00,CLR,,0.00,WeatherDisplay:10.37,2013-06-11 12:48:00,
2013-06-11 08:53:00,61.7,59.7,30.02,NNE,24,0.0,0.0,93,0.00,CLR,,0.00,WeatherDisplay:10.37,2013-06-11 12:53:00,
2013-06-11 08:58:00,61.7,59.7,30.02,NNE,24,0.0,0.0,93,0.00,CLR,,0.00,WeatherDisplay:10.37,2013-06-11 12:58:00,
2013-06-11 09:03:00,61.7,59.7,30.02,NNE,24,0.0,0.0,93,0.00,CLR,,0.00,WeatherDisplay:10.37,2013-06-11 13:03:00,
2013-06-11 09:08:00,61.7,59.7,30.02,NNE,24,0.0,0.0,93,0.00,CLR,,0.00,WeatherDisplay:10.37,2013-06-11 13:08:00,
2013-06-11 09:13:00,61.5,59.5,30.02,NNE,24,0.0,0.0,93,0.00,CLR,,0.00,WeatherDisplay:10.37,2013-06-11 13:13:00,
2013-06-11 09:18:00,61.5,59.5,30.03,NNE,24,0.0,0.0,93,0.00,CLR,,0.00,WeatherDisplay:10.37,2013-06-11 13:18:00,
2013-06-11 09:23:00,61.5,59.5,30.03,NNE,24,0.0,0.0,93,0.00,CLR,,0.00,WeatherDisplay:10.37,2013-06-11 13:23:00,
2013-06-11 09:28:00,61.5,59.5,30.03,NNE,24,0.0,0.0,93,0.00,CLR,,0.00,WeatherDisplay:10.37,2013-06-11 13:28:00,
2013-06-11 09:33:00,61.5,59.5,30.03,NNE,24,0.0,0.0,93,0.00,CLR,,0.00,WeatherDisplay:10.37,2013-06-11 13:33:00,
2013-06-11 09:38:00,61.9,60.1,30.03,NNE,24,0.0,0.0,94,0.00,CLR,,0.00,WeatherDisplay:10.37,2013-06-11 13:38:00,
2013-06-11 09:43:00,62.1,60.3,30.03,NNE,24,0.0,0.0,94,0.00,CLR,,0.00,WeatherDisplay:10.37,2013-06-11 13:43:00,
2013-06-11 09:49:00,62.2,60.5,30.03,NNE,24,0.0,0.0,94,0.00,CLR,,0.00,WeatherDisplay:10.37,2013-06-11 13:49:00,
2013-06-11 09:54:00,62.6,60.5,30.03,NNE,24,0.0,0.0,93,0.00,CLR,,0.00,WeatherDisplay:10.37,2013-06-11 13:54:00,
2013-06-11 09:59:00,62.6,60.5,30.03,NNE,24,0.0,0.0,93,0.00,CLR,,0.00,WeatherDisplay:10.37,2013-06-11 13:59:00,
2013-06-11 10:04:00,62.8,60.7,30.03,NNE,24,0.0,0.0,93,0.00,CLR,,0.00,WeatherDisplay:10.37,2013-06-11 14:04:00,
2013-06-11 10:09:00,62.6,60.5,30.03,NNE,24,0.0,0.0,93,0.00,CLR,,0.00,WeatherDisplay:10.37,2013-06-11 14:09:00,
2013-06-11 10:14:00,62.4,60.4,30.03,NNE,24,0.0,0.0,93,0.00,CLR,,0.00,WeatherDisplay:10.37,2013-06-11 14:14:00,
2013-06-11 10:19:00,62.6,60.5,30.03,NNE,24,0.0,0.0,93,0.00,CLR,,0.00,WeatherDisplay:10.37,2013-06-11 14:19:00,
2013-06-11 10:24:00,62.8,60.7,30.03,NNE,24,0.0,0.0,93,0.00,CLR,,0.00,WeatherDisplay:10.37,2013-06-11 14:24:00,
2013-06-11 10:29:00,63.0,60.9,30.03,NNE,24,0.0,0.0,93,0.00,CLR,,0.00,WeatherDisplay:10.37,2013-06-11 14:29:00,
2013-06-11 10:34:00,63.1,60.8,30.03,NNE,24,0.0,0.0,92,0.00,CLR,,0.00,WeatherDisplay:10.37,2013-06-11 14:34:00,
2013-06-11 10:39:00,63.9,61.5,30.03,NNE,24,0.0,0.0,92,0.00,CLR,,0.00,WeatherDisplay:10.37,2013-06-11 14:39:00,
2013-06-11 10:44:00,64.0,61.4,30.03,NNE,24,0.0,0.0,91,0.00,CLR,,0.00,WeatherDisplay:10.37,2013-06-11 14:44:00,
2013-06-11 10:49:00,64.0,61.4,30.03,NNE,24,0.0,0.0,91,0.00,CLR,,0.00,WeatherDisplay:10.37,2013-06-11 14:49:00,
2013-06-11 10:54:00,64.2,61.5,30.03,NNE,24,0.0,0.0,91,0.00,CLR,,0.00,WeatherDisplay:10.37,2013-06-11 14:54:00,
2013-06-11 10:59:00,64.2,61.2,30.03,NNE,24,0.0,0.0,90,0.00,CLR,,0.00,WeatherDisplay:10.37,2013-06-11 14:59:00,
2013-06-11 11:04:00,64.6,61.6,30.03,NNE,24,0.0,0.0,90,0.00,CLR,,0.00,WeatherDisplay:10.37,2013-06-11 15:04:00,
2013-06-11 11:09:00,64.9,61.9,30.02,NNE,24,0.0,0.0,90,0.00,CLR,,0.00,WeatherDisplay:10.37,2013-06-11 15:09:00,
2013-06-11 11:14:00,64.9,61.9,30.03,NNE,24,0.0,0.0,90,0.00,CLR,,0.00,WeatherDisplay:10.37,2013-06-11 15:14:00,
2013-06-11 11:19:00,64.9,61.3,30.03,NNE,24,0.0,0.0,88,0.00,CLR,,0.00,WeatherDisplay:10.37,2013-06-11 15:19:00,
2013-06-11 11:24:00,65.1,61.8,30.03,NNE,24,0.0,0.0,89,0.00,CLR,,0.00,WeatherDisplay:10.37,2013-06-11 15:24:00,
2013-06-11 11:29:00,65.3,62.0,30.03,NNE,24,0.0,0.0,89,0.00,CLR,,0.00,WeatherDisplay:10.37,2013-06-11 15:29:00,
2013-06-11 11:34:00,65.5,61.8,30.02,NNE,24,0.0,0.0,88,0.00,CLR,,0.00,WeatherDisplay:10.37,2013-06-11 15:34:00,
2013-06-11 11:39:00,65.8,61.9,30.03,NNE,24,0.0,0.0,87,0.00,CLR,,0.00,WeatherDisplay:10.37,2013-06-11 15:39:00,
2013-06-11 11:44:00,66.0,62.0,30.02,NNE,24,0.0,0.0,87,0.00,CLR,,0.00,WeatherDisplay:10.37,2013-06-11 15:44:00,
2013-06-11 11:49:00,66.0,62.4,30.02,NNE,24,0.0,0.0,88,0.00,CLR,,0.00,WeatherDisplay:10.37,2013-06-11 15:49:00,
2013-06-11 11:54:00,66.4,62.7,30.03,NNE,24,0.0,0.0,88,0.00,CLR,,0.00,WeatherDisplay:10.37,2013-06-11 15:54:00,
2013-06-11 11:59:00,66.4,62.7,30.02,NNE,24,0.0,0.0,88,0.00,CLR,,0.00,WeatherDisplay:10.37,2013-06-11 15:59:00,
2013-06-11 12:04:00,66.7,62.7,30.03,NNE,24,0.0,0.0,87,0.00,CLR,,0.00,WeatherDisplay:10.37,2013-06-11 16:04:00,
2013-06-11 12:09:00,67.3,62.9,30.02,NNE,24,0.0,0.0,86,0.00,CLR,,0.00,WeatherDisplay:10.37,2013-06-11 16:09:00,
2013-06-11 12:14:00,67.8,63.5,30.02,NNE,24,0.0,0.0,86,0.00,CLR,,0.00,WeatherDisplay:10.37,2013-06-11 16:14:00,
2013-06-11 12:19:00,68.2,63.5,30.02,NNE,24,0.0,0.0,85,0.00,CLR,,0.00,WeatherDisplay:10.37,2013-06-11 16:19:00,
2013-06-11 12:24:00,68.2,63.5,30.02,NNE,24,0.0,0.0,85,0.00,CLR,,0.00,WeatherDisplay:10.37,2013-06-11 16:24:00,
2013-06-11 12:29:00,67.8,62.8,30.02,NNE,24,0.0,0.0,84,0.00,CLR,,0.00,WeatherDisplay:10.37,2013-06-11 16:29:00,
2013-06-11 12:34:00,67.8,63.1,30.03,NNE,24,0.0,0.0,85,0.00,CLR,,0.00,WeatherDisplay:10.37,2013-06-11 16:34:00,
2013-06-11 12:39:00,67.8,63.1,30.02,NNE,24,0.0,0.0,85,0.00,CLR,,0.00,WeatherDisplay:10.37,2013-06-11 16:39:00,
2013-06-11 12:44:00,68.4,63.0,30.02,NNE,24,0.0,0.0,83,0.00,CLR,,0.00,WeatherDisplay:10.37,2013-06-11 16:44:00,
2013-06-11 12:49:00,68.7,63.0,30.02,NNE,24,0.0,0.0,82,0.00,CLR,,0.00,WeatherDisplay:10.37,2013-06-11 16:49:00,
2013-06-11 12:54:00,69.1,63.4,30.02,NNE,24,0.0,0.0,82,0.00,CLR,,0.00,WeatherDisplay:10.37,2013-06-11 16:54:00,
2013-06-11 12:59:00,68.9,63.2,30.03,NNE,24,0.0,0.0,82,0.00,CLR,,0.00,WeatherDisplay:10.37,2013-06-11 16:59:00,
2013-06-11 13:04:00,68.7,63.0,30.02,NNE,24,0.0,0.0,82,0.00,CLR,,0.00,WeatherDisplay:10.37,2013-06-11 17:04:00,
2013-06-11 13:09:00,69.1,63.4,30.02,NNE,24,0.0,0.0,82,0.00,CLR,,0.00,WeatherDisplay:10.37,2013-06-11 17:09:00,
2013-06-11 13:14:00,69.8,64.1,30.02,NNE,24,0.0,0.0,82,0.00,CLR,,0.00,WeatherDisplay:10.37,2013-06-11 17:14:00,
2013-06-11 13:19:00,70.5,64.0,30.02,NNE,24,0.0,0.0,80,0.00,CLR,,0.00,WeatherDisplay:10.37,2013-06-11 17:19:00,
2013-06-11 13:24:00,70.7,63.5,30.02,NNE,24,0.0,0.0,78,0.00,CLR,,0.00,WeatherDisplay:10.37,2013-06-11 17:24:00,
2013-06-11 13:29:00,70.5,63.0,30.02,NNE,24,0.0,0.0,77,0.00,CLR,,0.00,WeatherDisplay:10.37,2013-06-11 17:29:00,
2013-06-11 13:34:00,70.3,62.8,30.03,NNE,24,0.0,0.0,77,0.00,CLR,,0.00,WeatherDisplay:10.37,2013-06-11 17:34:00,
2013-06-11 13:39:00,70.2,63.0,30.03,NNE,24,0.0,0.0,78,0.00,CLR,,0.00,WeatherDisplay:10.37,2013-06-11 17:39:00,
2013-06-11 13:44:00,70.3,63.2,30.03,NNE,24,0.0,0.0,78,0.00,CLR,,0.00,WeatherDisplay:10.37,2013-06-11 17:44:00,
2013-06-11 13:49:00,70.3,62.8,30.03,NNE,24,0.0,0.0,77,0.00,CLR,,0.00,WeatherDisplay:10.37,2013-06-11 17:49:00,
2013-06-11 13:54:00,69.6,62.1,30.03,NNE,24,0.0,0.0,77,0.00,CLR,,0.00,WeatherDisplay:10.37,2013-06-11 17:54:00,
2013-06-11 13:59:00,69.6,62.8,30.03,NNE,24,0.0,0.0,79,0.00,CLR,,0.00,WeatherDisplay:10.37,2013-06-11 17:59:00,
2013-06-11 14:04:00,69.6,62.8,30.03,NNE,24,0.0,0.0,79,0.00,CLR,,0.00,WeatherDisplay:10.37,2013-06-11 18:04:00,
2013-06-11 14:09:00,70.5,63.3,30.03,NNE,24,0.0,0.0,78,0.00,CLR,,0.00,WeatherDisplay:10.37,2013-06-11 18:09:00,
2013-06-11 14:14:00,70.7,63.5,30.04,NNE,24,0.0,0.0,78,0.00,CLR,,0.00,WeatherDisplay:10.37,2013-06-11 18:14:00,
2013-06-11 14:19:00,70.9,63.3,30.04,NNE,24,0.0,0.0,77,0.00,CLR,,0.00,WeatherDisplay:10.37,2013-06-11 18:19:00,
2013-06-11 14:24:00,70.7,63.5,30.03,NNE,24,0.0,0.0,78,0.00,CLR,,0.00,WeatherDisplay:10.37,2013-06-11 18:24:00,
2013-06-11 14:29:00,70.7,63.5,30.03,NNE,24,0.0,0.0,78,0.00,CLR,,0.00,WeatherDisplay:10.37,2013-06-11 18:29:00,
2013-06-11 14:34:00,70.9,63.3,30.03,NNE,24,0.0,0.0,77,0.00,CLR,,0.00,WeatherDisplay:10.37,2013-06-11 18:34:00,
2013-06-11 14:39:00,71.4,64.2,30.03,NNE,24,0.0,0.0,78,0.00,CLR,,0.00,WeatherDisplay:10.37,2013-06-11 18:39:00,
2013-06-11 14:44:00,71.8,63.8,30.03,NNE,24,0.0,0.0,76,0.00,CLR,,0.00,WeatherDisplay:10.37,2013-06-11 18:44:00,
2013-06-11 14:49:00,72.7,64.3,30.03,NNE,24,0.0,0.0,75,0.00,CLR,,0.00,WeatherDisplay:10.37,2013-06-11 18:49:00,
2013-06-11 14:54:00,73.2,64.4,30.03,NNE,24,0.0,0.0,74,0.00,CLR,,0.00,WeatherDisplay:10.37,2013-06-11 18:54:00,
2013-06-11 14:59:00,73.6,64.8,30.03,NNE,24,0.0,0.0,74,0.00,CLR,,0.00,WeatherDisplay:10.37,2013-06-11 18:59:00,
2013-06-11 15:04:00,73.9,65.1,30.03,NNE,24,0.0,0.0,74,0.00,CLR,,0.00,WeatherDisplay:10.37,2013-06-11 19:04:00,
2013-06-11 15:09:00,73.9,64.3,30.03,NNE,24,0.0,0.0,72,0.00,CLR,,0.00,WeatherDisplay:10.37,2013-06-11 19:09:00,
2013-06-11 15:14:00,74.1,64.9,30.03,NNE,24,0.0,0.0,73,0.00,CLR,,0.00,WeatherDisplay:10.37,2013-06-11 19:14:00,
2013-06-11 15:19:00,74.1,64.1,30.03,NNE,24,0.0,0.0,71,0.00,CLR,,0.00,WeatherDisplay:10.37,2013-06-11 19:19:00,
2013-06-11 15:24:00,75.0,63.7,30.03,NNE,24,0.0,0.0,68,0.00,CLR,,0.00,WeatherDisplay:10.37,2013-06-11 19:24:00,
2013-06-11 15:29:00,75.4,63.7,30.03,NNE,24,0.0,0.0,67,0.00,CLR,,0.00,WeatherDisplay:10.37,2013-06-11 19:29:00,
2013-06-11 15:34:00,75.4,64.5,30.03,NNE,24,0.0,0.0,69,0.00,CLR,,0.00,WeatherDisplay:10.37,2013-06-11 19:34:00,
2013-06-11 15:39:00,75.4,64.5,30.02,NNE,24,0.0,0.0,69,0.00,CLR,,0.00,WeatherDisplay:10.37,2013-06-11 19:39:00,
2013-06-11 15:44:00,75.7,64.8,30.02,NNE,24,0.0,0.0,69,0.00,CLR,,0.00,WeatherDisplay:10.37,2013-06-11 19:44:00,
2013-06-11 15:49:00,74.8,63.6,30.02,NNE,24,0.0,0.0,68,0.00,CLR,,0.00,WeatherDisplay:10.37,2013-06-11 19:49:00,
2013-06-11 15:54:00,74.5,63.6,30.02,NNE,24,0.0,0.0,69,0.00,CLR,,0.00,WeatherDisplay:10.37,2013-06-11 19:54:00,
2013-06-11 15:59:00,73.8,63.4,30.02,NNE,24,0.0,0.0,70,0.00,CLR,,0.00,WeatherDisplay:10.37,2013-06-11 19:59:00,
2013-06-11 16:04:00,74.1,64.1,30.02,NNE,24,0.0,0.0,71,0.00,CLR,,0.00,WeatherDisplay:10.37,2013-06-11 20:04:00,
2013-06-11 16:09:00,74.3,63.5,30.02,NNE,24,0.0,0.0,69,0.00,CLR,,0.00,WeatherDisplay:10.37,2013-06-11 20:09:00,
2013-06-11 16:14:00,74.5,64.5,30.01,NNE,24,0.0,0.0,71,0.00,CLR,,0.00,WeatherDisplay:10.37,2013-06-11 20:14:00,
2013-06-11 16:19:00,75.4,64.9,30.01,NNE,24,0.0,0.0,70,0.00,CLR,,0.00,WeatherDisplay:10.37,2013-06-11 20:19:00,
2013-06-11 16:24:00,75.9,65.4,30.01,NNE,24,0.0,0.0,70,0.00,CLR,,0.00,WeatherDisplay:10.37,2013-06-11 20:24:00,
2013-06-11 16:29:00,76.3,64.9,30.01,NNE,24,0.0,0.0,68,0.00,CLR,,0.00,WeatherDisplay:10.37,2013-06-11 20:29:00,
2013-06-11 16:34:00,76.3,64.5,30.01,NNE,24,0.0,0.0,67,0.00,CLR,,0.00,WeatherDisplay:10.37,2013-06-11 20:34:00,
2013-06-11 16:39:00,76.1,64.3,30.01,NNE,24,0.0,0.0,67,0.00,CLR,,0.00,WeatherDisplay:10.37,2013-06-11 20:39:00,
2013-06-11 16:44:00,76.3,64.9,30.01,NNE,24,0.0,0.0,68,0.00,CLR,,0.00,WeatherDisplay:10.37,2013-06-11 20:44:00,
2013-06-11 16:49:00,76.6,64.9,30.01,NNE,24,0.0,0.0,67,0.00,CLR,,0.00,WeatherDisplay:10.37,2013-06-11 20:49:00,
2013-06-11 16:54:00,76.1,64.8,30.01,NNE,24,0.0,0.0,68,0.00,CLR,,0.00,WeatherDisplay:10.37,2013-06-11 20:54:00,
2013-06-11 16:59:00,75.7,64.4,30.01,NNE,24,0.0,0.0,68,0.00,CLR,,0.00,WeatherDisplay:10.37,2013-06-11 20:59:00,
2013-06-11 17:04:00,74.8,64.0,30.01,NNE,24,0.0,0.0,69,0.00,CLR,,0.00,WeatherDisplay:10.37,2013-06-11 21:04:00,
2013-06-11 17:09:00,74.8,64.4,30.01,NNE,24,0.0,0.0,70,0.00,CLR,,0.00,WeatherDisplay:10.37,2013-06-11 21:09:00,
2013-06-11 17:14:00,75.2,63.9,30.01,NNE,24,0.0,0.0,68,0.00,CLR,,0.00,WeatherDisplay:10.37,2013-06-11 21:14:00,
2013-06-11 17:19:00,75.4,64.5,30.02,NNE,24,0.0,0.0,69,0.00,CLR,,0.00,WeatherDisplay:10.37,2013-06-11 21:19:00,
2013-06-11 17:24:00,75.4,64.5,30.02,NNE,24,0.0,0.0,69,0.00,CLR,,0.00,WeatherDisplay:10.37,2013-06-11 21:24:00,
2013-06-11 17:29:00,75.4,64.5,30.02,NNE,24,0.0,0.0,69,0.00,CLR,,0.00,WeatherDisplay:10.37,2013-06-11 21:29:00,
2013-06-11 17:34:00,75.2,64.3,30.02,NNE,24,0.0,0.0,69,0.00,CLR,,0.00,WeatherDisplay:10.37,2013-06-11 21:34:00,
2013-06-11 17:39:00,75.0,64.2,30.02,NNE,24,0.0,0.0,69,0.00,CLR,,0.00,WeatherDisplay:10.37,2013-06-11 21:39:00,
2013-06-11 17:44:00,75.9,65.4,30.02,NNE,24,0.0,0.0,70,0.00,CLR,,0.00,WeatherDisplay:10.37,2013-06-11 21:44:00,
2013-06-11 17:49:00,75.9,64.6,30.02,NNE,24,0.0,0.0,68,0.00,CLR,,0.00,WeatherDisplay:10.37,2013-06-11 21:49:00,
2013-06-11 17:54:00,75.9,65.0,30.02,NNE,24,0.0,0.0,69,0.00,CLR,,0.00,WeatherDisplay:10.37,2013-06-11 21:54:00,
2013-06-11 17:59:00,76.1,64.8,30.02,NNE,24,0.0,0.0,68,0.00,CLR,,0.00,WeatherDisplay:10.37,2013-06-11 21:59:00,
2013-06-11 18:04:00,76.1,64.8,30.02,NNE,24,0.0,0.0,68,0.00,CLR,,0.00,WeatherDisplay:10.37,2013-06-11 22:04:00,
2013-06-11 18:09:00,75.6,63.8,30.02,NNE,24,0.0,0.0,67,0.00,CLR,,0.00,WeatherDisplay:10.37,2013-06-11 22:09:00,
2013-06-11 18:14:00,74.8,64.0,30.02,NNE,24,0.0,0.0,69,0.00,CLR,,0.00,WeatherDisplay:10.37,2013-06-11 22:14:00,
2013-06-11 18:19:00,74.8,64.4,30.02,NNE,24,0.0,0.0,70,0.00,CLR,,0.00,WeatherDisplay:10.37,2013-06-11 22:19:00,
2013-06-11 18:24:00,74.8,64.4,30.02,NNE,24,0.0,0.0,70,0.00,CLR,,0.00,WeatherDisplay:10.37,2013-06-11 22:24:00,
2013-06-11 18:29:00,74.5,64.1,30.01,NNE,24,0.0,0.0,70,0.00,CLR,,0.00,WeatherDisplay:10.37,2013-06-11 22:29:00,
2013-06-11 18:34:00,74.5,64.5,30.01,NNE,24,0.0,0.0,71,0.00,CLR,,0.00,WeatherDisplay:10.37,2013-06-11 22:34:00,
2013-06-11 18:39:00,74.3,64.3,30.01,NNE,24,0.0,0.0,71,0.00,CLR,,0.00,WeatherDisplay:10.37,2013-06-11 22:39:00,
2013-06-11 18:44:00,74.3,64.7,30.01,NNE,24,0.0,0.0,72,0.00,CLR,,0.00,WeatherDisplay:10.37,2013-06-11 22:44:00,
2013-06-11 18:49:00,74.3,64.7,30.01,NNE,24,0.0,0.0,72,0.00,CLR,,0.00,WeatherDisplay:10.37,2013-06-11 22:49:00,
2013-06-11 18:54:00,74.1,64.1,30.02,NNE,24,0.0,0.0,71,0.00,CLR,,0.00,WeatherDisplay:10.37,2013-06-11 22:54:00,
2013-06-11 18:59:00,74.1,64.5,30.01,NNE,24,0.0,0.0,72,0.00,CLR,,0.00,WeatherDisplay:10.37,2013-06-11 22:59:00,
2013-06-11 19:04:00,74.1,64.5,30.01,NNE,24,0.0,0.0,72,0.00,CLR,,0.00,WeatherDisplay:10.37,2013-06-11 23:04:00,
2013-06-11 19:09:00,74.3,64.7,30.01,NNE,24,0.0,0.0,72,0.00,CLR,,0.00,WeatherDisplay:10.37,2013-06-11 23:09:00,
2013-06-11 19:14:00,74.1,64.5,30.01,NNE,24,0.0,0.0,72,0.00,CLR,,0.00,WeatherDisplay:10.37,2013-06-11 23:14:00,
2013-06-11 19:19:00,73.9,64.3,30.01,NNE,24,0.0,0.0,72,0.00,CLR,,0.00,WeatherDisplay:10.37,2013-06-11 23:19:00,
2013-06-11 19:24:00,73.6,64.0,30.01,NNE,24,0.0,0.0,72,0.00,CLR,,0.00,WeatherDisplay:10.37,2013-06-11 23:24:00,
2013-06-11 19:29:00,73.2,64.0,30.01,NNE,24,0.0,0.0,73,0.00,CLR,,0.00,WeatherDisplay:10.37,2013-06-11 23:29:00,
2013-06-11 19:34:00,73.0,63.9,30.01,NNE,24,0.0,0.0,73,0.00,CLR,,0.00,WeatherDisplay:10.37,2013-06-11 23:34:00,
2013-06-11 19:39:00,73.0,64.3,30.01,NNE,24,0.0,0.0,74,0.00,CLR,,0.00,WeatherDisplay:10.37,2013-06-11 23:39:00,
2013-06-11 19:44:00,72.5,63.7,30.01,NNE,24,0.0,0.0,74,0.00,CLR,,0.00,WeatherDisplay:10.37,2013-06-11 23:44:00,
2013-06-11 19:49:00,72.3,63.6,30.01,NNE,24,0.0,0.0,74,0.00,CLR,,0.00,WeatherDisplay:10.37,2013-06-11 23:49:00,
2013-06-11 19:54:00,72.1,63.8,30.01,NNE,24,0.0,0.0,75,0.00,CLR,,0.00,WeatherDisplay:10.37,2013-06-11 23:54:00,
2013-06-11 19:59:00,72.0,64.0,30.01,NNE,24,0.0,0.0,76,0.00,CLR,,0.00,WeatherDisplay:10.37,2013-06-11 23:59:00,
2013-06-11 20:04:00,71.8,63.8,30.02,NNE,24,0.0,0.0,76,0.00,CLR,,0.00,WeatherDisplay:10.37,2013-06-12 00:04:00,
2013-06-11 20:09:00,71.6,63.6,30.01,NNE,24,0.0,0.0,76,0.00,CLR,,0.00,WeatherDisplay:10.37,2013-06-12 00:09:00,
2013-06-11 20:14:00,71.4,63.8,30.01,NNE,24,0.0,0.0,77,0.00,CLR,,0.00,WeatherDisplay:10.37,2013-06-12 00:14:00,
2013-06-11 20:19:00,71.2,63.7,30.02,NNE,24,0.0,0.0,77,0.00,CLR,,0.00,WeatherDisplay:10.37,2013-06-12 00:19:00,
2013-06-11 20:24:00,70.9,63.3,30.03,NNE,24,0.0,0.0,77,0.00,CLR,,0.00,WeatherDisplay:10.37,2013-06-12 00:24:00,
2013-06-11 20:29:00,70.5,63.3,30.03,NNE,24,0.0,0.0,78,0.00,CLR,,0.00,WeatherDisplay:10.37,2013-06-12 00:29:00,
2013-06-11 20:34:00,70.3,63.2,30.03,NNE,24,0.0,0.0,78,0.00,CLR,,0.00,WeatherDisplay:10.37,2013-06-12 00:34:00,
2013-06-11 20:39:00,70.2,63.0,30.03,NNE,24,0.0,0.0,78,0.00,CLR,,0.00,WeatherDisplay:10.37,2013-06-12 00:39:00,
2013-06-11 20:44:00,70.0,63.2,30.03,NNE,24,0.0,0.0,79,0.00,CLR,,0.00,WeatherDisplay:10.37,2013-06-12 00:44:00,
2013-06-11 20:50:00,69.6,62.8,30.03,NNE,24,0.0,0.0,79,0.00,CLR,,0.00,WeatherDisplay:10.37,2013-06-12 00:50:00,
2013-06-11 20:55:00,69.4,62.6,30.03,NNE,24,0.0,0.0,79,0.00,CLR,,0.00,WeatherDisplay:10.37,2013-06-12 00:55:00,
2013-06-11 21:00:00,69.4,63.0,30.03,NNE,24,0.0,0.0,80,0.00,CLR,,0.00,WeatherDisplay:10.37,2013-06-12 01:00:00,
2013-06-11 21:05:00,69.1,62.6,30.04,NNE,24,0.0,0.0,80,0.00,CLR,,0.00,WeatherDisplay:10.37,2013-06-12 01:05:00,
2013-06-11 21:10:00,68.9,62.5,30.04,NNE,24,0.0,0.0,80,0.00,CLR,,0.00,WeatherDisplay:10.37,2013-06-12 01:10:00,
2013-06-11 21:15:00,68.9,62.8,30.04,NNE,24,0.0,0.0,81,0.00,CLR,,0.00,WeatherDisplay:10.37,2013-06-12 01:15:00,
2013-06-11 21:20:00,68.7,62.7,30.04,NNE,24,0.0,0.0,81,0.00,CLR,,0.00,WeatherDisplay:10.37,2013-06-12 01:20:00,
2013-06-11 21:25:00,68.5,62.5,30.04,NNE,24,0.0,0.0,81,0.00,CLR,,0.00,WeatherDisplay:10.37,2013-06-12 01:25:00,
2013-06-11 21:30:00,68.5,62.5,30.05,NNE,24,0.0,0.0,81,0.00,CLR,,0.00,WeatherDisplay:10.37,2013-06-12 01:30:00,
2013-06-11 21:35:00,68.4,62.3,30.05,NNE,24,0.0,0.0,81,0.00,CLR,,0.00,WeatherDisplay:10.37,2013-06-12 01:35:00,
2013-06-11 21:40:00,68.4,62.3,30.05,NNE,24,0.0,0.0,81,0.00,CLR,,0.00,WeatherDisplay:10.37,2013-06-12 01:40:00,
2013-06-11 21:45:00,68.2,62.5,30.05,NNE,24,0.0,0.0,82,0.00,CLR,,0.00,WeatherDisplay:10.37,2013-06-12 01:45:00,
2013-06-11 21:50:00,68.2,62.5,30.05,NNE,24,0.0,0.0,82,0.00,CLR,,0.00,WeatherDisplay:10.37,2013-06-12 01:50:00,
2013-06-11 21:55:00,68.0,62.3,30.05,NNE,24,0.0,0.0,82,0.00,CLR,,0.00,WeatherDisplay:10.37,2013-06-12 01:55:00,
2013-06-11 22:00:00,67.8,62.5,30.05,NNE,24,0.0,0.0,83,0.00,CLR,,0.00,WeatherDisplay:10.37,2013-06-12 02:00:00,
2013-06-11 22:05:00,67.8,62.5,30.05,NNE,24,0.0,0.0,83,0.00,CLR,,0.00,WeatherDisplay:10.37,2013-06-12 02:05:00,
2013-06-11 22:10:00,67.8,62.5,30.04,NNE,24,0.0,0.0,83,0.00,CLR,,0.00,WeatherDisplay:10.37,2013-06-12 02:10:00,
2013-06-11 22:15:00,67.3,61.9,30.05,NNE,24,0.0,0.0,83,0.00,CLR,,0.00,WeatherDisplay:10.37,2013-06-12 02:15:00,
2013-06-11 22:20:00,67.3,61.9,30.05,NNE,24,0.0,0.0,83,0.00,CLR,,0.00,WeatherDisplay:10.37,2013-06-12 02:20:00,
2013-06-11 22:25:00,67.1,62.1,30.05,NNE,24,0.0,0.0,84,0.00,CLR,,0.00,WeatherDisplay:10.37,2013-06-12 02:25:00,
2013-06-11 22:30:00,66.7,61.7,30.05,NNE,24,0.0,0.0,84,0.00,CLR,,0.00,WeatherDisplay:10.37,2013-06-12 02:30:00,
2013-06-11 22:35:00,66.7,61.7,30.05,NNE,24,0.0,0.0,84,0.00,CLR,,0.00,WeatherDisplay:10.37,2013-06-12 02:35:00,
2013-06-11 22:40:00,66.7,61.7,30.05,NNE,24,0.0,0.0,84,0.00,CLR,,0.00,WeatherDisplay:10.37,2013-06-12 02:40:00,
2013-06-11 22:45:00,66.7,62.1,30.05,NNE,24,0.0,0.0,85,0.00,CLR,,0.00,WeatherDisplay:10.37,2013-06-12 02:45:00,
2013-06-11 22:50:00,66.6,61.9,30.04,NNE,24,0.0,0.0,85,0.00,CLR,,0.00,WeatherDisplay:10.37,2013-06-12 02:50:00,
2013-06-11 22:55:00,66.6,61.9,30.04,NNE,24,0.0,0.0,85,0.00,CLR,,0.00,WeatherDisplay:10.37,2013-06-12 02:55:00,
2013-06-11 23:00:00,66.2,61.6,30.04,NNE,24,0.0,0.0,85,0.00,CLR,,0.00,WeatherDisplay:10.37,2013-06-12 03:00:00,
2013-06-11 23:05:00,66.0,61.4,30.05,NNE,24,0.0,0.0,85,0.00,CLR,,0.00,WeatherDisplay:10.37,2013-06-12 03:05:00,
2013-06-11 23:10:00,66.0,61.7,30.04,NNE,24,0.0,0.0,86,0.00,CLR,,0.00,WeatherDisplay:10.37,2013-06-12 03:10:00,
2013-06-11 23:15:00,66.0,61.7,30.04,NNE,24,0.0,0.0,86,0.00,CLR,,0.00,WeatherDisplay:10.37,2013-06-12 03:15:00,
2013-06-11 23:20:00,66.0,61.7,30.04,NNE,24,0.0,0.0,86,0.00,CLR,,0.00,WeatherDisplay:10.37,2013-06-12 03:20:00,
2013-06-11 23:25:00,65.8,61.5,30.03,NNE,24,0.0,0.0,86,0.00,CLR,,0.00,WeatherDisplay:10.37,2013-06-12 03:25:00,
2013-06-11 23:30:00,65.5,61.2,30.03,NNE,24,0.0,0.0,86,0.00,CLR,,0.00,WeatherDisplay:10.37,2013-06-12 03:30:00,
2013-06-11 23:35:00,65.1,60.8,30.03,NNE,24,0.0,0.0,86,0.00,CLR,,0.00,WeatherDisplay:10.37,2013-06-12 03:35:00,
2013-06-11 23:40:00,64.9,61.0,30.02,NNE,24,0.0,0.0,87,0.00,CLR,,0.00,WeatherDisplay:10.37,2013-06-12 03:40:00,
2013-06-11 23:45:00,64.8,60.8,30.02,NNE,24,0.0,0.0,87,0.00,CLR,,0.00,WeatherDisplay:10.37,2013-06-12 03:45:00,
2013-06-11 23:50:00,64.6,60.6,30.02,NNE,24,0.0,0.0,87,0.00,CLR,,0.00,WeatherDisplay:10.37,2013-06-12 03:50:00,
2013-06-11 23:55:00,64.4,60.4,30.02,NNE,24,0.0,0.0,87,0.00,CLR,,0.00,WeatherDisplay:10.37,2013-06-12 03:55:00,